STARLINK-11668, 63557

Orbit data source: Space-Track

STARLINK-11668, 63557 is a payload satellite owned by SpaceX/Seattle (US) in LEO that was launched on Sun, 13 Apr 2025 UTC via an FALCON 9 launch vehicle from the Air Force Eastern Test Range (AFETR). Payload-class satellites include a variety of spacecraft equipped with specific instruments for various scientific and technological missions. These include communications satellites like Starlink; space stations such as the ISS; scientific satellites like the Hubble; Earth observation satellites from companies like Planet Labs, Umbra, and HawkEye 360; GPS; miniature CubeSats for education and research; and military/defense satellites.

Loading next visibility...
Identifier
63557, 2025-075K
Orbit
LEO
Country
Flag of USUS
Related business
Manufacturer
SpaceX/Seattle
Mission
Operational Commercial Communications
Bus & Motor
STARLINK V2MD, Unknown motor
Mass
960 kg wet, ~910 kg dry
Launch date (UTC)
2025-04-13 (1 year ago)
Launch vehicle
FALCON 9
Launch site
Air Force Eastern Test Range (AFETR)
Object type
Payload
Rocket body
Debris
Shape & HBR
Box + 2 Pan, 18.1 m
Radar Cross Section
36.964 m², Large (>1 m²)

Expand to show TLE details & history
Last TLE update: 1 day ago

TLE from 1 day ago
0 STARLINK-11668
1 63557U 25075K   26170.60421526  .00123276  00000-0  94851-3 0  9998
2 63557  43.0002 259.8058 0001873 266.7446  93.3207 15.70877722 69272
Epoch: 2026-06-19T14:30Z
TLE epoch observation values (Epoch: 2026-06-19T14:30:04.198Z)
Latitude
-0.00004°
Longitude
134.45745°
Altitude
356.232 km
Speed
7.697 km/s
True Right ascension
17h 19m 13s
True Declination
0° 00' 00"
Sunlit
Object was in full shadow at epoch
Visualization orbit readout
Latitude
Unknown
Longitude
Unknown
Altitude
Unknown
Speed
Unknown
Apparent Right ascension
Unknown
Apparent Declination
Unknown
Sunlit
N/A
Visualization observer readout
Local Sidereal Time
07:21:42
Azimuth
Unknown
Elevation
Unknown
Doppler factor
Unknown
Orbital elements
Apogee altitude
359.631 km
Perigee altitude
357.107 km
Semi-major axis
6,736.506 km
Eccentricity
0.00019
Inclination
43.0002°
RAAN
259.8058°
Arg. of periapsis
266.7446°
True anomaly
93.34213°
Mean anomaly
93.3207°
Eccentric anomaly
93.33141°
Mean motion
3.92547 °/min
Orbital period
91.71 mins
BSTAR
0.00094851
Loading maneuver chart data...
Computing Atmospheric mass density...
Loading historical data...
Loading historical data...
Loading historical data...
Loading historical data...
Loading historical data...
Loading historical data...
Loading historical data...

Documentation

Showing up to 5 results
|